Weather History for KDAG - November, 2012

Change the Weather History Date:

Saturday, November 10, 2012

  Actual Average Record
Temperature  
Mean Temperature 48 °F -  
Max Temperature 55 °F 71 °F 88 °F (1955)
Min Temperature 37 °F 46 °F 30 °F (1950)
Degree Days  
Heating Degree Days 17    
Moisture  
Dew Point 23 °F    
Average Humidity 40    
Maximum Humidity 57    
Minimum Humidity 25    
Precipitation  
Precipitation 0.00 in - - ()
Sea Level Pressure  
Sea Level Pressure 29.98 in    
Wind  
Wind Speed 20 mph (WSW)    
Max Wind Speed 31 mph    
Max Gust Speed 40 mph    
Visibility 10 miles    
Events      
Averages and records for this station are not official NWS values.
T = Trace of Precipitation, MM = Missing Value Source: NWS Daily Summary

Daily Weather History Graph

Daily Weather History Graph

Search for Another Location

Airport or City:

Trip Planner

Search our weather history database for the weather conditions in past years. The results will help you decide how hot, cold, wet, or windy it might be!

Date:

Astronomy

Nov. 10, 2012 Rise Set
Actual Time 6:17 AM PST 4:44 PM PST
Civil Twilight 5:50 AM PST 5:11 PM PST
Nautical Twilight 5:20 AM PST 5:41 PM PST
Astronomical Twilight 4:50 AM PST 6:11 PM PST
Moon 2:34 AM PST (11/10) 2:27 PM PST (11/10)
Length of Visible Light 11h 21m
Length of Day
10h 27m
Waning Crescent, 13% of the Moon is Illuminated
Nov 10
Waning Crescent
Nov 13
New
Nov 20
First Quarter
Nov 28
Full
Dec 6
Last Quarter

Hourly Weather History & Observations

Time (PST) Temp. Windchill Dew Point Humidity Pressure Visibility Wind Dir Wind Speed Gust Speed Precip Events Conditions
12:50 AM 45.0 °F 36.6 °F 26.1 °F 48% 29.87 in 10.0 mi West 21.9 mph - N/A   Clear
1:50 AM 45.0 °F 36.9 °F 26.1 °F 48% 29.87 in 10.0 mi WSW 20.7 mph - N/A   Clear
2:50 AM 44.1 °F 35.9 °F 26.1 °F 49% 29.89 in 10.0 mi WSW 19.6 mph - N/A   Clear
3:50 AM 44.1 °F 35.9 °F 25.0 °F 47% 29.89 in 10.0 mi WSW 19.6 mph - N/A   Clear
4:50 AM 44.1 °F 37.4 °F 25.0 °F 47% 29.91 in 10.0 mi WSW 13.8 mph - N/A   Clear
5:50 AM 41.0 °F 33.9 °F 27.0 °F 57% 29.93 in 10.0 mi West 12.7 mph - N/A   Clear
6:50 AM 41.0 °F 34.7 °F 27.0 °F 57% 29.95 in 10.0 mi West 10.4 mph - N/A   Clear
7:50 AM 46.9 °F - 26.1 °F 44% 29.96 in 10.0 mi WSW 23.0 mph 29.9 mph N/A   Clear
8:50 AM 50.0 °F - 26.1 °F 39% 29.98 in 10.0 mi WSW 23.0 mph 31.1 mph N/A   Clear
9:50 AM 52.0 °F - 25.0 °F 35% 29.97 in 10.0 mi West 31.1 mph 39.1 mph N/A   Clear
10:50 AM 53.1 °F - 24.1 °F 32% 29.98 in 10.0 mi West 28.8 mph 40.3 mph N/A   Partly Cloudy
11:50 AM 55.0 °F - 21.9 °F 28% 29.95 in 10.0 mi West 28.8 mph 36.8 mph N/A   Clear
12:50 PM 55.9 °F - 19.9 °F 25% 29.94 in 10.0 mi West 23.0 mph 36.8 mph N/A   Clear
3:50 PM 53.1 °F - 19.9 °F 27% 29.96 in 10.0 mi West 26.5 mph 32.2 mph N/A   Clear
4:50 PM 50.0 °F - 21.0 °F 32% 30.00 in 10.0 mi West 24.2 mph 28.8 mph N/A   Clear
5:50 PM 48.0 °F - 21.0 °F 34% 30.02 in 10.0 mi West 23.0 mph 32.2 mph N/A   Clear
6:50 PM 46.9 °F - 21.9 °F 37% 30.06 in 10.0 mi WSW 23.0 mph - N/A   Clear
7:50 PM 46.0 °F 38.3 °F 21.0 °F 37% 30.07 in 10.0 mi WSW 20.7 mph - N/A   Clear
8:50 PM 45.0 °F 37.9 °F 18.0 °F 34% 30.10 in 10.0 mi SW 16.1 mph - N/A   Clear
10:50 PM 42.1 °F 37.7 °F 17.1 °F 37% 30.13 in 10.0 mi West 6.9 mph - N/A   Clear
11:50 PM 37.9 °F 32.1 °F 17.1 °F 43% 30.16 in 10.0 mi West 8.1 mph - N/A   Clear